Regional Weather Roundup
Issued by NWS Upton, NY

Current Version | Previous Version | Text Only | Print | Product List | Glossary On
Versions: 1 2 3 4 5 6 7 8 9 10 11 12 13 14 15 16 17 18 19 20 21 22 23 24 25 26 27
000 ASUS41 KOKX 242205 RWROKX Regional Weather Roundup National Weather Service New York NY 600 PM EDT TUE APR 24 2018 Note: "FAIR" indicates few or no clouds below 12,000 feet with no significant weather and/or obstructions to visibility. NYZ071-072-176-178-NJZ106-104-242300- New York City Metro Area CITY SKY/WX TMP DP RH WIND PRES REMARKS Central Park PTSUNNY 60 41 49 VRB5 30.27F Bronx Bot Gard N/A 59 39 47 SE8 30.27R Bronx Lehman C N/A 61 39 44 SE9 N/A LaGuardia Arpt CLOUDY 61 40 45 SE14 30.25S Queens College N/A 57 43 58 SE14 N/A Kennedy Intl CLOUDY 57 42 57 SE17 30.26F Breezy Point N/A 50 N/A N/A SE12 N/A Brooklyn Coll N/A 55 43 62 SE12 N/A Staten Island N/A 55 45 67 SE9 N/A Newark/Liberty CLOUDY 59 45 59 SE13G21 30.25F Teterboro PTSUNNY 61 41 47 SE12 30.23F $$ NYZ177-179-078>081-242300- Long Island New York CITY SKY/WX TMP DP RH WIND PRES REMARKS Jones Beach N/A 52 N/A N/A SE12 N/A Wantagh N/A 55 43 62 SE12 N/A Hempstead N/A 57 43 58 SE8 30.28F Matinecock Pt N/A 59 N/A N/A S6 N/A Farmingdale CLOUDY 57 40 52 SE14 30.26F MacArthur/ISP CLOUDY 57 40 52 SE13 30.26F Stony Brook N/A 59 39 47 S8 N/A Shirley FAIR 56 41 57 SE10 30.28F Mt Sinai Harb N/A N/A N/A N/A SE9 N/A Westhampton FAIR 55 38 52 SE7 30.30S East Hampton FAIR 53 39 59 SE9 30.29S Southold N/A 57 41 54 S7 N/A Montauk N/A 56 41 57 VRB5 30.31F $$ NYZ052-065-067-242300- Hudson Valley CITY SKY/WX TMP DP RH WIND PRES REMARKS White Plains FAIR 58 39 49 SE12 30.24F Larchmont Harb N/A 55 N/A N/A SE13 N/A Croton On Huds N/A 61 N/A N/A E7G14 N/A Somers N/A 57 41 54 SE9 N/A Brewster N/A 59 39 47 S5 N/A Newburgh PTSUNNY 61 41 48 S14G21 30.24S Montgomery FAIR 61 38 42 SE13G23 30.21S Otisville N/A 59 41 51 S9 N/A Warwick N/A 59 41 51 SE12 N/A Suffern N/A 59 41 51 S6 N/A Poughkeepsie FAIR 62 35 36 S10 30.22F Albany PTSUNNY 67 25 20 S15G25 30.17F $$ NJZ001-105-106-008-010-013-015-019>022-104-242300- New Jersey CITY SKY/WX TMP DP RH WIND PRES REMARKS Newark/Liberty CLOUDY 59 45 59 SE13G21 30.25F Teterboro PTSUNNY 61 41 47 SE12 30.23F Caldwell FAIR 59 40 49 S12 30.24F Somerville CLOUDY 60 43 53 MISG 30.20F Linden CLOUDY 57 44 60 S9 30.25S Perth Amboy N/A 55 N/A N/A E15 N/A Sussex FAIR 60 42 51 S8 30.23S Andover N/A 59 41 51 VRB7 30.21F Trenton PTSUNNY 60 43 53 SE10 30.20F Millville FAIR 59 46 62 E15 30.16F Atlantic City PTSUNNY 57 49 74 E16G26 30.19F Wrightstown PTSUNNY 58 44 59 SE10 30.18F Toms River FAIR 57 46 66 SE8G20 30.22F Belmar CLOUDY 55 45 68 E16G22 30.24F $$ PAZ047>061-062-071-242300- Eastern Pennsylvania CITY SKY/WX TMP DP RH WIND PRES REMARKS Philadelphia CLOUDY 60 44 55 E15 30.18F Allentown FAIR 63 42 46 SE14G21 30.18F Scranton FAIR 60 38 43 S13G21 30.16F $$ CTZ002-004>006-009-010-012-RIZ004-006-007-MAZ004-011-015-242300- Southern New England In CT CITY SKY/WX TMP DP RH WIND PRES REMARKS Bradley Intl PTSUNNY 62 38 40 S14 30.25F Hartford FAIR 61 40 45 S12 30.26F Danbury FAIR 58 40 51 SE9 30.26F Wtrbury/Oxford FAIR 58 38 47 S9 30.26F Norwalk Harbor N/A 52 N/A N/A SE8 N/A Bridgeport FAIR 59 41 51 SE8 30.26F Meriden FAIR 60 39 45 S12 30.26F New Haven CLOUDY 58 42 55 SE9 30.27F Chester FAIR 59 37 44 S6 30.28F Groton FAIR 53 44 71 SE9 30.29F Willimantic FAIR 60 39 45 S10 30.28F In RI CITY SKY/WX TMP DP RH WIND PRES REMARKS Providence PTSUNNY 57 41 55 S10 30.31F Block Island FAIR 51 42 71 S12 30.31F Westerly FAIR 54 42 64 S8 30.30F In MA CITY SKY/WX TMP DP RH WIND PRES REMARKS Boston PTSUNNY 60 35 39 S17 30.27S Worcester FAIR 59 30 33 S17 30.25F Westfield FAIR 63 33 32 S14G21 30.23S Provincetown FAIR 53 31 42 S16G22 30.32F Nantucket FAIR 49 46 90 SE10 30.35F $$ ANZ330-335-338-340-345-350-353-355-242300- Coastal Marine Observations STATION/POSITION TIME SKY/WX TEMP WIND PRES VSBY WAVE AIR SEA DIR/SP/G HT/PER (UTC) (F) (DEG/KT/KT) (MB) (MI) (FT/S) NY Harb Entrance 2150 50 48 110/ 12/ 14 1024.1 2/ 8 20 S Fire Island 2150 49 45 110/ 10/ 12 1024.5 2/ 9 23 SSW Montauk P 2150 49 46 130/ 10/ 10 1025.9 1/ 9 15 E Barnegat Li 2130 47 N/A 3/ 5 Hudson Canyon 2150 51 46 100/ 12/ 14 1023.6 4/ 6 Kings Point 2148 58 49 200/ 12/ 15 1025.4 Execution Rocks NOT AVBL Western LI Sound NOT AVBL Central LI Sound 2130 51 150/ 8/ 10 N/A 1 Robbins Reef 2148 57 130/ 16/ 19 1025.0 $$ >>>>>>>>>>>>>>>>>>>>>>>>>>>> KEY <<<<<<<<<<<<<<<<<<<<<<<<<<< > < > SKY/WX - Sky Condition/Present Weather < > TMP - Temperature in Fahrenheit < > DP - Dew Point in Fahrenheit < > RH - Relative Humidity in Percent < > WIND - Direction (from) and Speed in MPH < > PRES - Mean Sea Level Pressure (inches of Hg) < > WCI - Wind Chill Index < > VSB - Visibility in Miles < > HX - Heat Index < > TC - Temperature in Celsius < > VRB - Varibale Wind Direction < > < >>>>>>>>>>>>>>>>>>>>>>>>>>>> KEY <<<<<<<<<<<<<<<<<<<<<<<<<<<

USA.gov is the U.S. government's official web portal to all federal, state and local government web resources and services.